When you browse on this site, cookies collect data to enhance your experience and personalize the content and advertising you see.
Visit our Privacy Policy to learn more. By continuing to use the site, you agree to this use of cookies and data.
  • In Slovakia
  • List of Countries
  • For 7 days
  • Water Temperature
  • Weather Map
  • Weather Widgets
  • user-avatar
    Login

    Hourly Weather Igls

    Today, 29 January, Wednesday

    Time Temperature Precipitation Wind Pressure Humidity
    00:00 -3°C° 0.1 mm 2 mps 675 mmHg 89%
    01:00 -2°C° 0 mm 2 mps 675 mmHg 81%
    02:00 -2°C° 0.4 mm 2 mps 675 mmHg 83%
    03:00 -2°C° 0.4 mm 2 mps 675 mmHg 85%
    04:00 -2°C° 0.4 mm 2 mps 675 mmHg 87%
    05:00 -2°C° 0.8 mm 2 mps 676 mmHg 89%
    06:00 0°C° 0.8 mm 1 mps 676 mmHg 92%
    07:00 -2°C° 0 mm 2 mps 677 mmHg 95%
    08:00 -2°C° 0.7 mm 2 mps 678 mmHg 92%
    09:00 -1°C° 0.7 mm 2 mps 678 mmHg 90%
    10:00 +1°C° 0.7 mm 1 mps 678 mmHg 87%
    11:00 +2°C° 0.2 mm 1 mps 678 mmHg 85%
    12:00 +2°C° 0.2 mm 1 mps 679 mmHg 83%
    13:00 +3°C° 0 mm 1 mps 679 mmHg 75%
    14:00 +2°C° 0.7 mm 1 mps 678 mmHg 82%
    15:00 +2°C° 0.7 mm 1 mps 678 mmHg 88%
    16:00 +2°C° 0.7 mm 1 mps 678 mmHg 94%
    17:00 +2°C° 0.9 mm 1 mps 679 mmHg 95%
    18:00 +2°C° 0.9 mm 1 mps 680 mmHg 95%
    19:00 +1°C° 0.9 mm 1 mps 681 mmHg 96%
    20:00 +1°C° 0.9 mm 1 mps 681 mmHg 96%
    21:00 +1°C° 0.9 mm 1 mps 682 mmHg 96%
    22:00 +1°C° 0.9 mm 1 mps 682 mmHg 96%
    23:00 +1°C° 0.6 mm 1 mps 682 mmHg 96%

    Tomorrow, 30 January, Thursday

    Time Temperature Precipitation Wind Pressure Humidity
    00:00 +1°C° 0.6 mm 1 mps 683 mmHg 95%
    01:00 0°C° 0.6 mm 1 mps 683 mmHg 95%
    02:00 0°C° 0.1 mm 1 mps 683 mmHg 91%
    03:00 -1°C° 0.1 mm 1 mps 683 mmHg 88%
    04:00 -3°C° 0.1 mm 2 mps 683 mmHg 84%
    05:00 -3°C° 0 mm 2 mps 683 mmHg 79%
    06:00 -3°C° 0 mm 2 mps 683 mmHg 74%
    07:00 -3°C° 0 mm 2 mps 683 mmHg 70%
    08:00 -1°C° 0 mm 2 mps 683 mmHg 68%
    09:00 +2°C° 0 mm 1 mps 684 mmHg 67%
    10:00 +4°C° 0 mm 1 mps 684 mmHg 65%
    11:00 +5°C° 0 mm 1 mps 683 mmHg 70%
    12:00 +6°C° 0 mm 1 mps 683 mmHg 74%
    13:00 +7°C° 0 mm 1 mps 683 mmHg 79%
    14:00 +7°C° 0 mm 1 mps 682 mmHg 78%
    15:00 +7°C° 0 mm 1 mps 682 mmHg 78%
    16:00 +5°C° 0 mm 2 mps 682 mmHg 77%
    17:00 +4°C° 0 mm 2 mps 682 mmHg 74%
    18:00 +3°C° 0 mm 2 mps 682 mmHg 70%
    19:00 +2°C° 0 mm 2 mps 682 mmHg 67%
    20:00 +3°C° 0.1 mm 2 mps 682 mmHg 69%
    21:00 +3°C° 0.1 mm 2 mps 682 mmHg 71%
    22:00 +4°C° 0.1 mm 2 mps 682 mmHg 74%
    23:00 +4°C° 0.6 mm 2 mps 682 mmHg 79%

    Day after tomorrow, 31 January, Friday

    Time Temperature Precipitation Wind Pressure Humidity
    00:00 +4°C° 0.6 mm 2 mps 682 mmHg 85%
    01:00 +4°C° 0.6 mm 2 mps 682 mmHg 90%
    02:00 +4°C° 0.4 mm 2 mps 682 mmHg 91%
    03:00 +5°C° 0.4 mm 2 mps 682 mmHg 91%
    04:00 +6°C° 0.4 mm 1 mps 682 mmHg 91%
    05:00 +6°C° 0.2 mm 1 mps 682 mmHg 93%
    06:00 +5°C° 0.2 mm 2 mps 682 mmHg 94%
    07:00 +5°C° 0.2 mm 2 mps 682 mmHg 96%
    08:00 +6°C° 0.1 mm 2 mps 683 mmHg 97%
    09:00 +7°C° 0.1 mm 1 mps 683 mmHg 98%
    10:00 +8°C° 0.1 mm 1 mps 683 mmHg 99%
    11:00 +8°C° 0 mm 1 mps 683 mmHg 99%
    12:00 +9°C° 0 mm 1 mps 683 mmHg 99%
    13:00 +9°C° 0 mm 1 mps 683 mmHg 99%
    14:00 +9°C° 0 mm 1 mps 683 mmHg 99%
    15:00 +8°C° 0 mm 1 mps 683 mmHg 99%
    16:00 +8°C° 0 mm 1 mps 683 mmHg 98%
    17:00 +7°C° 0 mm 1 mps 683 mmHg 97%
    18:00 +7°C° 0 mm 1 mps 683 mmHg 95%
    19:00 +6°C° 0 mm 1 mps 683 mmHg 93%
    20:00 +6°C° 0 mm 1 mps 683 mmHg 92%
    21:00 +5°C° 0 mm 1 mps 683 mmHg 90%
    22:00 +5°C° 0 mm 1 mps 683 mmHg 89%
    23:00 +5°C° 0 mm 1 mps 683 mmHg 87%

    1 February, Saturday

    Time Temperature Precipitation Wind Pressure Humidity
    00:00 +5°C° 0 mm 1 mps 683 mmHg 85%
    01:00 +4°C° 0 mm 1 mps 683 mmHg 83%
    02:00 +4°C° 0 mm 1 mps 682 mmHg 83%
    03:00 +4°C° 0 mm 1 mps 682 mmHg 82%
    04:00 +4°C° 0 mm 1 mps 682 mmHg 81%
    05:00 +4°C° 0 mm 1 mps 682 mmHg 81%
    06:00 +4°C° 0 mm 1 mps 682 mmHg 80%
    07:00 +4°C° 0 mm 1 mps 682 mmHg 80%
    08:00 +5°C° 0 mm 1 mps 682 mmHg 82%
    09:00 +6°C° 0 mm 1 mps 682 mmHg 83%
    10:00 +6°C° 0 mm 2 mps 682 mmHg 85%
    11:00 +6°C° 0 mm 2 mps 682 mmHg 88%
    12:00 +7°C° 0 mm 2 mps 681 mmHg 91%
    13:00 +8°C° 0 mm 1 mps 681 mmHg 94%
    14:00 +8°C° 0 mm 1 mps 681 mmHg 94%
    15:00 +8°C° 0 mm 1 mps 681 mmHg 93%
    16:00 +8°C° 0 mm 1 mps 681 mmHg 93%
    17:00 +6°C° 0.1 mm 2 mps 680 mmHg 92%
    18:00 +6°C° 0.1 mm 2 mps 680 mmHg 91%
    19:00 +5°C° 0.1 mm 2 mps 680 mmHg 90%
    20:00 +5°C° 1.6 mm 2 mps 681 mmHg 93%
    21:00 +5°C° 1.6 mm 2 mps 681 mmHg 95%
    22:00 +4°C° 1.6 mm 2 mps 682 mmHg 98%
    23:00 +5°C° 0.8 mm 1 mps 682 mmHg 97%

    2 February, Sunday

    Time Temperature Precipitation Wind Pressure Humidity
    00:00 +5°C° 0.8 mm 1 mps 682 mmHg 97%
    01:00 +4°C° 0.8 mm 1 mps 682 mmHg 96%
    02:00 +4°C° 0.4 mm 1 mps 683 mmHg 96%
    03:00 +4°C° 0.4 mm 1 mps 683 mmHg 97%
    04:00 +4°C° 0.4 mm 1 mps 683 mmHg 97%
    05:00 +4°C° 0.1 mm 1 mps 683 mmHg 96%
    06:00 +2°C° 0.1 mm 2 mps 684 mmHg 95%
    07:00 +2°C° 0.1 mm 2 mps 684 mmHg 93%
    08:00 +3°C° 0 mm 2 mps 684 mmHg 88%
    09:00 +4°C° 0 mm 2 mps 684 mmHg 83%
    10:00 +6°C° 0 mm 1 mps 685 mmHg 78%
    11:00 +6°C° 0.1 mm 1 mps 684 mmHg 82%
    12:00 +7°C° 0.1 mm 1 mps 684 mmHg 85%
    13:00 +7°C° 0.1 mm 1 mps 684 mmHg 89%
    14:00 +7°C° 1.2 mm 1 mps 683 mmHg 91%
    15:00 +5°C° 1.2 mm 2 mps 683 mmHg 94%
    16:00 +5°C° 1.2 mm 2 mps 682 mmHg 96%
    17:00 +6°C° 2.6 mm 2 mps 683 mmHg 97%
    18:00 +6°C° 2.6 mm 2 mps 683 mmHg 97%
    19:00 +6°C° 2.6 mm 2 mps 683 mmHg 98%
    20:00 +6°C° 2.4 mm 2 mps 684 mmHg 98%
    21:00 +7°C° 2.4 mm 2 mps 684 mmHg 98%
    22:00 +7°C° 2.4 mm 2 mps 684 mmHg 97%
    23:00 +7°C° 1.6 mm 2 mps 684 mmHg 97%

    3 February, Monday

    Time Temperature Precipitation Wind Pressure Humidity
    00:00 +7°C° 1.6 mm 2 mps 685 mmHg 97%
    01:00 +7°C° 1.6 mm 2 mps 685 mmHg 97%
    02:00 +7°C° 0.7 mm 2 mps 685 mmHg 97%
    03:00 +7°C° 0.7 mm 2 mps 684 mmHg 97%
    04:00 +7°C° 0.7 mm 2 mps 684 mmHg 97%
    05:00 +7°C° 0.4 mm 2 mps 684 mmHg 97%
    06:00 +7°C° 0.4 mm 2 mps 684 mmHg 97%
    07:00 +7°C° 0.4 mm 2 mps 684 mmHg 96%
    08:00 +7°C° 0.2 mm 2 mps 685 mmHg 97%
    09:00 +8°C° 0.2 mm 2 mps 685 mmHg 98%
    10:00 +8°C° 0.2 mm 2 mps 685 mmHg 98%
    11:00 +8°C° 0 mm 2 mps 685 mmHg 98%
    12:00 +8°C° 0 mm 2 mps 685 mmHg 98%
    13:00 +9°C° 0 mm 2 mps 685 mmHg 97%
    14:00 +8°C° 0 mm 2 mps 685 mmHg 96%
    15:00 +8°C° 0 mm 2 mps 685 mmHg 96%
    16:00 +8°C° 0 mm 2 mps 685 mmHg 95%
    17:00 +7°C° 0 mm 2 mps 685 mmHg 88%
    18:00 +7°C° 0 mm 2 mps 684 mmHg 80%
    19:00 +6°C° 0 mm 2 mps 684 mmHg 72%
    20:00 +6°C° 0 mm 2 mps 684 mmHg 69%
    21:00 +6°C° 0 mm 2 mps 684 mmHg 66%
    22:00 +6°C° 0 mm 2 mps 684 mmHg 62%
    23:00 +6°C° 0 mm 2 mps 684 mmHg 63%
    Show more